Date String (YYYY-MM-DD hh:mm:ss) UTC,Instrument flags,Ambient pressure (hPa),Sample flow (lpm),Bypass flow (lpm),Sample temperature (°C),Ambient temperature (°C),ASC tube jacket temperature (°C),LED temperature (°C),Box temperature (°C),Sample RH (%),Span deviation,Mass concentration (μg/m³),Mass concentration (μg/m³),Mass concentration (μg/m³)
DateTimeUTC,F1_M11,P_M11,Q1_M11,Q2_M11,T1_M11,T2_M11,T3_M11,T4_M11,T5_M11,U1_M11,ZSPAN_M11,X0_M11,X2_M11,X1_M11
2021-10-29 23:00:00,,0825.4,5.01,0.00,29.8,28.8,00.0,38.7,31.7,09.6,0000.0,0011.78,0001.85,0000.77
2021-10-29 23:01:00,,0825.4,5.00,0.00,29.9,28.9,00.0,38.7,31.8,09.6,0000.0,0010.99,0001.86,0000.77
2021-10-29 23:02:00,,0825.4,5.00,0.00,29.9,29.0,00.0,38.7,31.8,09.5,0000.0,0009.85,0001.78,0000.75
2021-10-29 23:03:00,,0825.4,5.00,0.00,29.9,29.1,00.0,38.8,31.9,09.5,0000.0,0009.91,0001.78,0000.74
2021-10-29 23:04:00,,0825.4,5.00,0.00,30.0,29.2,00.0,38.8,31.9,09.5,0000.0,0010.08,0001.81,0000.74
2021-10-29 23:05:00,,0825.4,5.00,0.00,30.0,29.2,00.0,38.8,32.0,09.5,0000.0,0010.12,0001.77,0000.75
2021-10-29 23:06:00,,0825.4,5.01,0.00,30.0,28.4,00.0,38.8,31.8,09.5,0000.0,0010.56,0001.74,0000.75
2021-10-29 23:07:00,,0825.3,4.98,0.00,29.9,26.4,00.0,38.8,31.4,09.5,0000.0,0010.28,0001.70,0000.74
2021-10-29 23:08:00,,0825.3,5.00,0.00,29.8,25.7,00.0,38.8,31.2,09.5,0000.0,0009.92,0001.64,0000.73
2021-10-29 23:09:00,,0825.3,5.01,0.00,29.7,26.1,00.0,38.8,31.2,09.6,0000.0,0010.47,0001.61,0000.74
2021-10-29 23:10:00,,0825.3,5.00,0.00,29.6,26.6,00.0,38.7,31.2,09.7,0000.0,0010.17,0001.62,0000.76
2021-10-29 23:11:00,,0825.3,5.01,0.00,29.6,27.1,00.0,38.7,31.3,09.7,0000.0,0009.48,0001.59,0000.77
2021-10-29 23:12:00,,0825.3,4.99,0.00,29.6,27.4,00.0,38.7,31.3,09.7,0000.0,0008.83,0001.51,0000.76
2021-10-29 23:13:00,,0825.4,5.00,0.00,29.6,27.8,00.0,38.7,31.4,09.7,0000.0,0008.76,0001.48,0000.76
2021-10-29 23:14:00,,0825.4,5.01,0.00,29.7,28.1,00.0,38.7,31.5,09.7,0000.0,0008.68,0001.51,0000.79
2021-10-29 23:15:00,,0825.3,5.01,0.00,29.7,28.3,00.0,38.7,31.5,09.6,0000.0,0007.87,0001.55,0000.85
2021-10-29 23:16:00,,0825.4,4.99,0.00,29.7,28.6,00.0,38.7,31.6,09.5,0000.0,0007.65,0001.56,0000.87
2021-10-29 23:17:00,,0825.3,5.00,0.00,29.8,28.7,00.0,38.7,31.7,09.5,0000.0,0005.91,0001.53,0000.86
2021-10-29 23:18:00,,0825.3,5.01,0.00,29.8,28.9,00.0,38.7,31.7,09.5,0000.0,0005.71,0001.55,0000.87
2021-10-29 23:19:00,,0825.3,4.99,0.00,29.9,29.0,00.0,38.7,31.8,09.4,0000.0,0006.02,0001.55,0000.87
2021-10-29 23:20:00,,0825.4,4.99,0.00,29.9,29.1,00.0,38.7,31.8,09.3,0000.0,0005.33,0001.54,0000.87
2021-10-29 23:21:00,,0825.3,5.00,0.00,29.9,29.1,00.0,38.8,31.8,09.4,0000.0,0005.53,0001.48,0000.86
2021-10-29 23:22:00,,0825.4,5.00,0.00,30.0,29.2,00.0,38.8,31.9,09.4,0000.0,0005.40,0001.47,0000.85
2021-10-29 23:23:00,,0825.4,5.00,0.00,30.0,29.3,00.0,38.8,32.0,09.1,0000.0,0005.63,0001.47,0000.86
2021-10-29 23:24:00,,0825.4,5.01,0.00,30.1,28.7,00.0,38.9,31.9,08.5,0000.0,0005.44,0001.43,0000.84
2021-10-29 23:25:00,,0825.3,4.99,0.00,29.9,26.5,00.0,38.8,31.4,08.7,0000.0,0005.42,0001.34,0000.80
2021-10-29 23:26:00,,0825.3,5.00,0.00,29.8,25.6,00.0,38.8,31.2,08.9,0000.0,0005.41,0001.24,0000.71
2021-10-29 23:27:00,,0825.3,5.00,0.00,29.7,25.9,00.0,38.8,31.2,08.9,0000.0,0005.47,0001.20,0000.67
2021-10-29 23:28:00,,0825.3,4.98,0.00,29.6,26.4,00.0,38.7,31.2,08.9,0000.0,0005.43,0001.21,0000.66
2021-10-29 23:29:00,,0825.3,5.01,0.00,29.6,26.9,00.0,38.7,31.3,08.8,0000.0,0004.99,0001.14,0000.63
2021-10-29 23:30:00,,0825.2,5.00,0.00,29.6,27.3,00.0,38.6,31.3,08.8,0000.0,0004.50,0001.12,0000.61
2021-10-29 23:31:00,,0825.3,5.00,0.00,29.6,27.7,00.0,38.6,31.4,08.7,0000.0,0003.75,0001.10,0000.58
2021-10-29 23:32:00,,0825.2,5.00,0.00,29.6,28.0,00.0,38.6,31.5,08.6,0000.0,0003.25,0001.07,0000.55
2021-10-29 23:33:00,,0825.2,5.00,0.00,29.7,28.2,00.0,38.6,31.5,08.5,0000.0,0002.97,0001.01,0000.52
2021-10-29 23:34:00,,0825.2,5.01,0.00,29.7,28.4,00.0,38.6,31.5,08.5,0000.0,0002.76,0000.97,0000.50
2021-10-29 23:35:00,,0825.2,5.00,0.00,29.7,28.6,00.0,38.7,31.6,08.3,0000.0,0003.11,0000.95,0000.48
2021-10-29 23:36:00,,0825.3,4.99,0.00,29.8,28.7,00.0,38.7,31.7,08.4,0000.0,0003.12,0000.97,0000.47
2021-10-29 23:37:00,,0825.2,5.01,0.00,29.8,28.9,00.0,38.7,31.7,08.4,0000.0,0002.88,0000.96,0000.46
2021-10-29 23:38:00,,0825.2,4.99,0.00,29.9,29.0,00.0,38.7,31.7,08.4,0000.0,0002.72,0000.94,0000.44
2021-10-29 23:39:00,,0825.3,5.01,0.00,29.9,29.1,00.0,38.7,31.8,08.2,0000.0,0002.84,0000.90,0000.43
2021-10-29 23:40:00,,0825.2,5.00,0.00,30.0,29.2,00.0,38.8,31.9,07.9,0000.0,0003.14,0000.92,0000.42
2021-10-29 23:41:00,,0825.2,5.00,0.00,30.0,29.2,00.0,38.8,31.9,07.7,0000.0,0002.93,0000.87,0000.40
2021-10-29 23:42:00,,0825.3,4.99,0.00,30.0,29.3,00.0,38.8,32.0,07.9,0000.0,0003.15,0000.84,0000.39
2021-10-29 23:43:00,,0825.3,5.00,0.00,30.1,29.4,00.0,38.9,32.0,07.8,0000.0,0003.19,0000.84,0000.38
2021-10-29 23:44:00,,0825.2,4.99,0.00,30.1,28.2,00.0,38.9,31.8,07.9,0000.0,0003.14,0000.82,0000.37
2021-10-29 23:45:00,,0825.2,4.99,0.00,30.0,26.6,00.0,38.9,31.5,08.1,0000.0,0003.60,0000.80,0000.36
2021-10-29 23:46:00,,0825.2,5.00,0.00,29.9,26.6,00.0,38.9,31.4,07.9,0000.0,0003.71,0000.83,0000.36
2021-10-29 23:47:00,,0825.2,5.01,0.00,29.8,27.0,00.0,38.8,31.4,07.9,0000.0,0003.68,0000.81,0000.36
2021-10-29 23:48:00,,0825.2,5.01,0.00,29.8,27.4,00.0,38.8,31.5,08.0,0000.0,0003.72,0000.81,0000.36
2021-10-29 23:49:00,,0825.2,4.99,0.00,29.8,27.7,00.0,38.8,31.5,08.0,0000.0,0003.93,0000.78,0000.35
2021-10-29 23:50:00,,0825.2,4.99,0.00,29.8,28.1,00.0,38.8,31.6,08.1,0000.0,0004.63,0000.76,0000.34
2021-10-29 23:51:00,,0825.2,5.00,0.00,29.8,28.3,00.0,38.8,31.7,08.0,0000.0,0004.96,0000.71,0000.34
2021-10-29 23:52:00,,0825.2,5.01,0.00,29.9,28.5,00.0,38.8,31.7,07.9,0000.0,0004.98,0000.70,0000.35
2021-10-29 23:53:00,,0825.2,5.00,0.00,29.9,28.7,00.0,38.8,31.8,07.9,0000.0,0005.21,0000.68,0000.34
2021-10-29 23:54:00,,0825.2,4.98,0.00,29.9,28.8,00.0,38.8,31.8,07.8,0000.0,0005.39,0000.65,0000.34
2021-10-29 23:55:00,,0825.2,5.00,0.00,30.0,28.9,00.0,38.8,31.9,07.4,0000.0,0005.38,0000.62,0000.33
2021-10-29 23:56:00,,0825.2,5.01,0.00,30.0,29.0,00.0,38.9,31.9,07.3,0000.0,0004.86,0000.61,0000.32
2021-10-29 23:57:00,,0825.1,5.00,0.00,30.0,29.1,00.0,38.9,31.9,07.3,0000.0,0005.60,0000.59,0000.31
2021-10-29 23:58:00,,0825.1,4.99,0.00,30.1,29.1,00.0,38.9,32.0,07.2,0000.0,0005.53,0000.55,0000.30
2021-10-29 23:59:00,,0825.1,5.00,0.00,30.1,29.2,00.0,38.9,32.0,07.2,0000.0,0005.39,0000.49,0000.28
